Regional Weather Roundup
Issued by NWS Sioux Falls, SD

Home | Current Version | Previous Version | Graphics & Text | Print | Product List | Glossary Off
Versions: 1 2 3 4 5 6 7 8 9 10 11 12 13 14 15 16 17 18 19 20 21 22 23 24 25 26 27 28 29 30 31 32 33 34 35 36 37 38 39 40 41 42 43 44 45 46 47 48 49 50

000
ASUS43 KFSD 271610
RWRFSD

WEATHER ROUNDUP FOR SE SOUTH DAKOTA/SW MINNESOTA/NW IOWA
NATIONAL WEATHER SERVICE SIOUX FALLS SD
1100 AM CDT FRI MAY 27 2016

NOTE: "FAIR" INDICATES FEW OR NO CLOUDS BELOW 12,000 FEET WITH NO
SIGNIFICANT WEATHER AND OR OBSTRUCTIONS TO VISIBILITY.


SDZ038>040-050-052>070-271700-
SOUTHEAST SOUTH DAKOTA

CITY           SKY/WX    TMP DP  RH WIND       PRES   REMARKS
BROOKINGS      LGT RAIN  62  58  86 S10       29.79F
CHAMBERLAIN    RAIN      60  59  98 W12       29.82R
HURON          LGT RAIN  63  59  87 S10G20    29.77R
MADISON        LGT RAIN  59  59 100 S12       29.80S
MITCHELL       RAIN      61  60  97 S8        29.79R FOG
SIOUX FALLS    CLOUDY    66  58  75 S5        29.78F
WINNER         RAIN      58  55  90 W8        29.85R FOG
YANKTON        CLOUDY    64  57  77 E5        29.75F
$$

MNZ071-072-080-081-089-090-097-098-271700-
SOUTHWEST MINNESOTA

CITY           SKY/WX    TMP DP  RH WIND       PRES   REMARKS
FAIRMONT       CLOUDY    64  57  77 SE8       29.78F
JACKSON        CLOUDY    66  55  68 S8        29.79S
LUVERNE        CLOUDY    63  54  72 SW7       29.79F
MARSHALL       CLOUDY    69  56  62 SW14      29.77F
MONTEVIDEO     PTSUNNY   72  57  60 S10       29.77S
PIPESTONE      LGT RAIN  64  57  77 S7        29.79F
REDWOOD FALLS  LGT RAIN  66  58  75 S14       29.78R
TRACY          LGT RAIN  67  58  73 SW9       29.79S
WINDOM         DRIZZLE   64  57  77 CALM      29.79S
WORTHINGTON    CLOUDY    63  57  81 S5        29.79F
$$

IAZ001>003-012>014-020>022-031-032-NEZ013-014-SDZ071-271700-
NORTHWEST IOWA

CITY           SKY/WX    TMP DP  RH WIND       PRES   REMARKS
CHEROKEE       CLOUDY    66  64  91 CALM      29.76F
ESTHERVILLE    CLOUDY    67  60  78 S9        29.77F
LE MARS        CLOUDY    66  61  82 CALM      29.77F
ORANGE CITY    PTSUNNY   64  57  77 CALM      29.77F
SHELDON        CLOUDY    66  57  72 S7        29.77F
SIOUX CITY     CLOUDY    67  59  75 CALM      29.76F
SPENCER        CLOUDY    66  59  78 SW7       29.77F
STORM LAKE     CLOUDY    66  61  82 SE6       29.78S
$$

ABBREVIATIONS USED IN REMARKS
   TC - TEMPERATURE IN CELSIUS
  WCI - WIND CHILL INDEX
   HX - HEAT INDEX
  VSB - VISIBILITY





USA.gov is the U.S. government's official web portal to all federal, state and local government web resources and services.